Galliano, LA

8:38 AM CST on February 22, 2017 (GMT -0600)
Galliano

Weather History for KGAO - September, 2013

Change the Weather History Date:

Friday, September 13, 2013

  Actual Average (KHUM) Record (KHUM)
Temperature  
Mean Temperature 80 °F -  
Max Temperature 92 °F 88 °F 95 °F (1947)
Min Temperature 68 °F 70 °F 49 °F (1940)
Cooling Degree Days 14    
Growing Degree Days 30 (Base 50)    
Moisture  
Dew Point 74 °F    
Average Humidity 81    
Maximum Humidity 100    
Minimum Humidity 55    
Precipitation  
Precipitation 0.00 in - - ()
Sea Level Pressure  
Sea Level Pressure 29.89 in    
Wind  
Wind Speed 3 mph (East)    
Max Wind Speed 10 mph    
Max Gust Speed -    
Visibility 8 miles    
Events      
Averages and records for this station are not official NWS values.
T = Trace of Precipitation, MM = Missing Value Source: NWS Daily Summary

Daily Weather History Graph

Daily Weather History Graph

Search for Another Location

Airport or City:

Trip Planner

Search our weather history database for the weather conditions in past years. The results will help you decide how hot, cold, wet, or windy it might be!

Date:

Astronomy

Sep. 13, 2013 Rise Set
Actual Time 6:44 AM CDT 7:08 PM CDT
Civil Twilight 6:21 AM CDT 7:32 PM CDT
Nautical Twilight 5:53 AM CDT 8:00 PM CDT
Astronomical Twilight 5:24 AM CDT 8:28 PM CDT
Moon 2:39 PM CDT (9/13) 12:34 AM CDT (9/13)
Length of Visible Light 13h 11m
Length of Day
12h 23m
First Quarter, 61% of the Moon is Illuminated
Sep 13
First Quarter
Sep 19
Full
Sep 26
Last Quarter
Oct 4
New
Oct 11
First Quarter

Hourly Weather History & Observations

Time (CDT) Temp. Heat Index Dew Point Humidity Pressure Visibility Wind Dir Wind Speed Gust Speed Precip Events Conditions
12:15 AM 75.0 °F - 73.8 °F 96% 29.94 in - East 3.5 mph - N/A   Unknown
12:35 AM 76.3 °F - 74.3 °F 94% 29.94 in - East 4.6 mph - N/A   Unknown
12:55 AM 76.1 °F - 74.1 °F 94% 29.93 in 10.0 mi Calm Calm - N/A   Clear
1:15 AM 75.9 °F - 74.8 °F 96% 29.93 in 10.0 mi Calm Calm - N/A   Clear
1:35 AM 75.0 °F - 74.3 °F 98% 29.93 in 10.0 mi Calm Calm - N/A   Clear
1:55 AM 74.8 °F - 74.5 °F 99% 29.92 in 10.0 mi Calm Calm - N/A   Clear
2:15 AM 72.9 °F - 72.9 °F 100% 29.92 in 7.0 mi Calm Calm - N/A   Clear
2:35 AM 72.9 °F - 72.9 °F 100% 29.92 in 7.0 mi Calm Calm - N/A   Clear
2:55 AM 72.7 °F - 72.7 °F 100% 29.91 in - NNW 3.5 mph - N/A   Unknown
3:15 AM 71.6 °F - 71.6 °F 100% 29.90 in 7.0 mi Calm Calm - N/A   Clear
3:35 AM 71.8 °F - 71.8 °F 100% 29.90 in 10.0 mi Calm Calm - N/A   Clear
3:55 AM 71.6 °F - 71.6 °F 100% 29.90 in 7.0 mi Calm Calm - N/A   Clear
4:15 AM 70.9 °F - 70.9 °F 100% 29.90 in 10.0 mi Calm Calm - N/A   Clear
4:35 AM 70.2 °F - 70.2 °F 100% 29.90 in 7.0 mi Calm Calm - N/A   Clear
4:55 AM 69.4 °F - 69.4 °F 100% 29.90 in 4.0 mi Calm Calm - N/A   Clear
5:15 AM 69.1 °F - 69.1 °F 100% 29.90 in 7.0 mi Calm Calm - N/A   Clear
5:35 AM 69.4 °F - 69.4 °F 100% 29.90 in 1.0 mi Calm Calm - N/A   Mist
5:55 AM 68.9 °F - 68.9 °F 100% 29.90 in 10.0 mi Calm Calm - N/A   Clear
6:15 AM 68.9 °F - 68.9 °F 100% 29.90 in 10.0 mi Calm Calm - N/A   Clear
6:35 AM 69.3 °F - 69.3 °F 100% 29.91 in 10.0 mi NNW 3.5 mph - N/A   Clear
6:55 AM 68.9 °F - 68.9 °F 100% 29.91 in - Calm Calm - N/A   Unknown
7:15 AM 70.0 °F - 70.0 °F 100% 29.91 in - Calm Calm - N/A   Unknown
7:35 AM 71.8 °F - 71.8 °F 100% 29.91 in 2.0 mi Calm Calm - N/A   Clear
7:55 AM 74.1 °F - 74.1 °F 100% 29.91 in - NNW 6.9 mph - N/A   Unknown
8:15 AM 74.8 °F - 74.8 °F 100% 29.92 in - NNW 6.9 mph - N/A   Unknown
8:35 AM 76.3 °F - 76.3 °F 100% 29.92 in - NNW 6.9 mph - N/A   Unknown
8:55 AM 81.0 °F 89.9 °F 80.1 °F 97% 29.92 in - North 6.9 mph - N/A   Overcast
9:15 AM 83.5 °F 96.3 °F 80.4 °F 90% 29.93 in - North 6.9 mph - N/A   Unknown
9:35 AM 83.8 °F 95.8 °F 79.2 °F 86% 29.93 in 10.0 mi North 6.9 mph - N/A   Scattered Clouds
9:55 AM 85.3 °F 96.3 °F 77.4 °F 77% 29.94 in - North 5.8 mph - N/A   Clear
10:15 AM 86.4 °F 95.1 °F 74.7 °F 68% 29.94 in - North 5.8 mph - N/A   Clear
10:35 AM 87.1 °F 95.9 °F 74.5 °F 66% 29.94 in - NNE 5.8 mph - N/A   Clear
10:55 AM 88.3 °F 96.4 °F 73.4 °F 61% 29.94 in - Calm Calm - N/A   Clear
11:15 AM 89.1 °F 96.0 °F 72.0 °F 57% 29.94 in - East 3.5 mph - N/A   Clear
11:35 AM 89.4 °F 98.9 °F 74.3 °F 61% 29.94 in - NE 4.6 mph - N/A   Clear
11:55 AM 88.9 °F 97.1 °F 73.6 °F 60% 29.93 in - NNE 6.9 mph - N/A   Clear
12:15 PM 89.8 °F 99.7 °F 74.8 °F 61% 29.92 in - NE 3.5 mph - N/A   Scattered Clouds
12:35 PM 89.4 °F 97.8 °F 73.6 °F 59% 29.92 in - ESE 6.9 mph - N/A   Mostly Cloudy
12:55 PM 90.9 °F 101.2 °F 74.7 °F 59% 29.91 in - East 6.9 mph - N/A   Scattered Clouds
1:15 PM 90.5 °F 99.7 °F 73.9 °F 58% 29.90 in - ESE 4.6 mph - N/A   Clear
1:35 PM 91.2 °F 100.8 °F 74.3 °F 57% 29.89 in - East 5.8 mph - N/A   Clear
1:55 PM 91.2 °F 101.4 °F 74.7 °F 58% 29.89 in - East 5.8 mph - N/A   Clear
2:15 PM 91.2 °F 100.8 °F 74.1 °F 57% 29.88 in - ESE 6.9 mph - N/A   Clear
2:35 PM 91.8 °F 101.5 °F 73.9 °F 56% 29.87 in - East 8.1 mph - N/A   Clear
2:55 PM 91.4 °F 100.1 °F 73.2 °F 55% 29.86 in - East 6.9 mph - N/A   Clear
3:15 PM 91.6 °F 100.5 °F 73.6 °F 55% 29.85 in - ESE 5.8 mph - N/A   Clear
3:35 PM 91.4 °F 100.7 °F 73.6 °F 56% 29.85 in - East 9.2 mph - N/A   Clear
3:55 PM 90.7 °F 100.1 °F 73.9 °F 58% 29.84 in - East 8.1 mph - N/A   Clear
4:15 PM 90.1 °F 98.9 °F 73.8 °F 58% 29.84 in - ESE 6.9 mph - N/A   Clear
4:35 PM 90.1 °F 98.9 °F 73.8 °F 58% 29.83 in - East 6.9 mph - N/A   Clear
4:55 PM 89.2 °F 97.9 °F 73.6 °F 60% 29.83 in - ESE 10.4 mph - N/A   Clear
5:15 PM 87.8 °F 96.1 °F 73.6 °F 63% 29.84 in - ESE 6.9 mph - N/A   Clear
5:35 PM 87.6 °F 96.2 °F 74.3 °F 64% 29.84 in - ESE 4.6 mph - N/A   Clear
5:55 PM 87.8 °F 96.6 °F 74.5 °F 64% 29.84 in - ESE 5.8 mph - N/A   Clear
6:15 PM 87.1 °F 95.4 °F 73.9 °F 65% 29.84 in - ESE 6.9 mph - N/A   Clear
6:35 PM 86.0 °F 93.8 °F 73.8 °F 67% 29.84 in - ESE 6.9 mph - N/A   Clear
6:55 PM 84.6 °F 91.4 °F 73.4 °F 69% 29.84 in - East 4.6 mph - N/A   Clear
7:15 PM 83.1 °F 89.5 °F 73.6 °F 73% 29.85 in - ESE 3.5 mph - N/A   Clear
7:35 PM 82.6 °F 88.8 °F 73.8 °F 75% 29.86 in 10.0 mi Calm Calm - N/A   Clear
7:55 PM 80.6 °F 85.5 °F 73.9 °F 80% 29.86 in 10.0 mi SSE 3.5 mph - N/A   Clear
8:15 PM 80.6 °F 85.5 °F 73.9 °F 80% 29.87 in - Calm Calm - N/A   Clear
8:35 PM 79.3 °F - 74.1 °F 84% 29.87 in 10.0 mi SSE 4.6 mph - N/A   Clear
8:55 PM 78.8 °F - 74.3 °F 86% 29.87 in 10.0 mi Calm Calm - N/A   Clear
9:15 PM 79.7 °F - 75.2 °F 86% 29.87 in 10.0 mi Calm Calm - N/A   Clear
9:35 PM 79.9 °F - 75.2 °F 86% 29.87 in - SSE 3.5 mph - N/A   Clear
9:55 PM 78.1 °F - 74.7 °F 89% 29.87 in 10.0 mi SSE 3.5 mph - N/A   Clear
10:15 PM 78.8 °F - 75.0 °F 88% 29.87 in 10.0 mi Calm Calm - N/A   Clear
10:35 PM 78.8 °F - 74.8 °F 88% 29.88 in 10.0 mi Calm Calm - N/A   Clear
10:55 PM 77.5 °F - 73.9 °F 89% 29.88 in 10.0 mi Calm Calm - N/A   Clear
11:15 PM 77.4 °F - 74.3 °F 90% 29.88 in - Calm Calm - N/A   Unknown
11:35 PM 76.6 °F - 74.3 °F 92% 29.88 in - Calm Calm - N/A   Unknown
11:55 PM 76.8 °F - 74.3 °F 92% 29.88 in - Calm Calm - N/A   Unknown